Hickory, NC

10:25 AM EDT on April 30, 2017 (GMT -0400)
Hickory Regional

Weather History for KHKY - March, 2015

Change the Weather History Date:

Tuesday, March 17, 2015

  Actual Average Record
Temperature  
Mean Temperature 66 °F -  
Max Temperature 79 °F 59 °F 79 °F (1982)
Min Temperature 52 °F 35 °F 21 °F (1988)
Growing Degree Days 16 (Base 50)    
Moisture  
Dew Point 37 °F    
Average Humidity 35    
Maximum Humidity 47    
Minimum Humidity 15    
Precipitation  
Precipitation 0.00 in - - ()
Sea Level Pressure  
Sea Level Pressure 29.85 in    
Wind  
Wind Speed 8 mph (NW)    
Max Wind Speed 16 mph    
Max Gust Speed 26 mph    
Visibility 10 miles    
Events      
Averages and records for this station are not official NWS values.
T = Trace of Precipitation, MM = Missing Value Source: NWS Daily Summary

Daily Weather History Graph

Daily Weather History Graph

Search for Another Location

Airport or City:

Trip Planner

Search our weather history database for the weather conditions in past years. The results will help you decide how hot, cold, wet, or windy it might be!

Date:

Astronomy

Mar. 17, 2015 Rise Set
Actual Time 7:33 AM EDT 7:34 PM EDT
Civil Twilight 7:08 AM EDT 8:00 PM EDT
Nautical Twilight 6:38 AM EDT 8:29 PM EDT
Astronomical Twilight 6:08 AM EDT 8:59 PM EDT
Moon 5:25 AM EDT (3/17) 4:42 PM EDT (3/17)
Length of Visible Light 12h 51m
Length of Day
12h 00m
Waning Crescent, 11% of the Moon is Illuminated
Mar 17
Waning Crescent
Mar 20
New
Mar 27
First Quarter
Apr 4
Full
Apr 11
Last Quarter

Hourly Weather History & Observations

Time (EDT) Temp. Dew Point Humidity Pressure Visibility Wind Dir Wind Speed Gust Speed Precip Events Conditions
12:53 AM 63.0 °F 15.1 °F 16% 29.91 in 10.0 mi WSW 4.6 mph - N/A   Clear
1:53 AM 64.0 °F 15.1 °F 15% 29.89 in 10.0 mi WNW 6.9 mph - N/A   Clear
2:53 AM 59.0 °F 18.0 °F 20% 29.88 in 10.0 mi South 3.5 mph - N/A   Clear
3:53 AM 52.0 °F 28.0 °F 40% 29.86 in 10.0 mi South 3.5 mph - N/A   Clear
4:53 AM 57.0 °F 27.0 °F 32% 29.83 in 10.0 mi West 10.4 mph - N/A   Clear
5:53 AM 61.0 °F 28.0 °F 29% 29.83 in 10.0 mi WNW 6.9 mph - N/A   Clear
6:53 AM 60.1 °F 33.1 °F 36% 29.83 in 10.0 mi WNW 6.9 mph - N/A   Clear
7:53 AM 62.1 °F 36.0 °F 38% 29.83 in 10.0 mi NW 10.4 mph 19.6 mph N/A   Clear
8:53 AM 64.9 °F 42.1 °F 43% 29.82 in 10.0 mi NW 8.1 mph - N/A   Clear
9:53 AM 66.9 °F 46.0 °F 47% 29.81 in 10.0 mi Calm Calm - N/A   Clear
10:53 AM 72.0 °F 46.0 °F 40% 29.78 in 10.0 mi NW 12.7 mph - N/A   Clear
11:53 AM 73.9 °F 46.0 °F 37% 29.79 in 10.0 mi WNW 10.4 mph 18.4 mph N/A   Clear
12:53 PM 77.0 °F 46.0 °F 33% 29.80 in 10.0 mi NW 12.7 mph - N/A   Clear
1:53 PM 73.9 °F 46.0 °F 37% 29.79 in 10.0 mi NW 12.7 mph 26.5 mph N/A   Clear
2:53 PM 77.0 °F 46.0 °F 33% 29.78 in 10.0 mi NNW 11.5 mph 23.0 mph N/A   Clear
3:53 PM 79.0 °F 45.0 °F 30% 29.78 in 10.0 mi NNW 9.2 mph 18.4 mph N/A   Scattered Clouds
4:53 PM 75.9 °F 45.0 °F 33% 29.80 in 10.0 mi NW 15.0 mph 24.2 mph N/A   Partly Cloudy
5:53 PM 73.9 °F 45.0 °F 35% 29.82 in 10.0 mi NNW 16.1 mph 24.2 mph N/A   Partly Cloudy
6:53 PM 70.0 °F 46.0 °F 42% 29.86 in 10.0 mi North 11.5 mph 20.7 mph N/A   Scattered Clouds
7:53 PM 66.0 °F 43.0 °F 43% 29.90 in 10.0 mi NNW 8.1 mph - N/A   Clear
8:53 PM 64.0 °F 43.0 °F 46% 29.93 in 10.0 mi NW 6.9 mph - N/A   Clear
9:53 PM 62.1 °F 39.9 °F 44% 29.95 in 10.0 mi NNW 6.9 mph - N/A   Clear
10:53 PM 60.1 °F 32.0 °F 35% 29.98 in 10.0 mi North 4.6 mph - N/A   Clear
11:53 PM 59.0 °F 27.0 °F 29% 29.98 in 10.0 mi North 6.9 mph - N/A   Clear